Temperature
18 18 18 18 18 18 18 18 17 17 17 17 18 18 18 18 18 18 18 18 18 18 18 17 17 17 17 17 17 17 17 16 16 16 16 16 16 16 16 16 16 16 16
18 18 18 18 18 18 18 18 18 18 18 18 18 18 18 18 18 18 18 18 18 18 18 18 18 17 17 17 17 17 17 17 16 16 16 16 16 16 16 16 16 16 16
18 18 18 18 18 18 18 18 18 18 18 18 18 18 18 18 18 18 18 18 18 18 18 18 18 18 17 17 17 17 17 17 17 16 16 16 16 16 16 16 16 16 16
18 18 18 18 18 18 18 18 18 18 18 18 18 18 18 18 18 18 18 17 17 17 18 18 18 18 17 17 17 17 17 17 17 17 16 16 16 16 16 16 16 16 16
18 18 18 18 18 18 18 18 18 18 18 18 18 18 18 18 18 18 18 17 17 17 17 18 17 18 18 18 18 17 17 17 17 17 17 16 16 16 16 16 16 16 16
18 18 18 18 18 18 18 18 18 18 18 18 18 18 18 18 18 18 18 18 18 17 17 17 17 18 18 18 18 17 17 17 17 17 17 17 16 16 16 16 16 16 16
18 18 18 18 18 18 18 18 18 18 18 18 18 18 18 18 18 18 18 18 18 18 17 17 17 17 17 18 17 17 17 17 17 17 17 17 16 16 16 16 16 16 16
18 18 18 18 18 18 18 18 18 18 18 18 18 18 18 18 18 18 18 18 18 18 18 17 17 17 17 17 18 17 17 17 17 17 17 17 16 16 16 16 16 16 16
18 18 18 18 18 18 18 18 18 18 18 18 18 18 18 18 18 19 19 18 18 18 18 18 18 17 17 17 17 17 17 17 17 17 17 17 16 16 16 16 16 16 16
18 18 18 18 18 18 18 18 18 18 18 18 18 18 18 18 18 18 18 18 18 18 18 18 18 18 17 17 17 17 17 17 17 17 17 17 16 16 16 16 16 16 15
19 19 18 18 18 18 18 18 18 18 18 18 18 18 18 18 18 18 18 18 18 18 18 18 18 18 18 17 17 17 17 17 17 17 17 16 16 16 16 16 16 16 15
19 19 18 18 18 18 18 18 18 18 18 18 18 18 18 18 18 18 18 18 18 18 18 18 18 18 18 17 17 17 17 17 17 17 17 16 16 16 16 16 16 15 15
19 19 18 18 18 18 18 18 18 18 18 18 18 18 18 18 18 18 18 18 18 18 18 18 18 18 18 17 17 17 17 17 17 17 16 16 16 16 16 16 15 15 15
19 19 18 18 18 18 18 18 18 18 18 18 18 18 18 18 18 18 18 18 18 18 18 18 18 18 18 17 17 17 17 17 17 16 16 16 16 16 16 15 15 15 15
19 19 18 18 18 18 18 18 18 18 18 18 18 18 18 17 17 18 18 18 17 17 17 18 18 17 17 17 17 17 16 16 16 16 16 16 16 16 15 15 15 15 15
19 19 19 18 18 18 18 18 18 18 18 17 17 17 17 17 17 17 17 17 17 17 17 17 17 17 17 17 17 16 16 16 16 16 16 15 15 15 15 15 15 15 14
19 19 18 18 18 18 18 18 18 17 17 17 17 17 17 17 17 17 17 17 17 17 16 17 17 17 17 16 16 16 16 16 16 16 15 15 15 15 15 15 15 14 14
19 19 19 18 18 18 18 18 17 17 17 17 17 17 17 17 17 17 17 17 17 17 16 16 16 16 16 16 16 16 15 15 15 15 15 15 15 15 15 14 14 14 14
19 19 19 18 18 18 18 17 17 17 17 17 17 17 17 16 17 17 16 16 16 16 16 16 16 16 16 16 15 15 15 15 15 15 14 14 14 14 14 14 14 14 13
19 19 18 18 18 18 18 18 17 17 17 17 17 16 16 16 16 16 16 16 16 16 16 15 15 15 15 15 15 15 14 14 14 14 14 14 14 14 13 13 13 13 13
19 19 18 18 18 18 18 17 17 17 17 17 16 16 16 16 16 16 16 16 16 15 15 15 15 15 15 15 14 14 14 14 13 14 14 13 13 13 13 13 13 13 13
19 19 18 18 18 17 17 17 17 17 17 16 16 16 16 16 16 15 15 15 15 15 15 15 15 15 15 14 14 14 13 13 13 13 13 13 13 13 13 12 12 12 12
19 18 18 18 17 17 17 17 17 17 16 16 16 16 15 15 15 15 15 15 15 15 15 14 14 14 14 14 14 14 13 13 13 13 12 12 12 12 12 12 12 12 12
18 18 18 17 17 17 17 17 17 16 16 16 15 15 15 15 15 15 14 14 14 14 14 14 14 14 14 14 13 13 13 13 12 12 12 12 12 12 12 11 11 11 11
18 18 17 17 17 17 17 17 16 16 15 15 15 15 15 15 14 14 14 14 14 14 14 14 14 14 13 13 13 13 12 12 12 12 12 12 12 11 11 11 11 11 11
17 17 17 16 16 16 16 16 16 16 15 15 14 14 14 14 14 14 14 14 13 13 13 13 13 13 13 13 12 12 12 12 12 11 12 11 11 11 10 11 11 10 10
Wind_Speed
3 4 4 6 6 7 7 5 5 4 3 5 5 5 3 3 5 8 12 15 15 14 13 12 11 10 10 10 10 10 10 10 9 8 8 7 7 7 7 6 6 6 5
4 3 3 3 4 5 5 6 5 4 3 3 3 3 3 3 5 8 11 14 15 15 14 13 12 12 11 11 11 11 11 11 10 10 9 9 8 8 8 7 7 7 6
5 4 3 3 4 6 6 5 4 4 3 4 4 3 3 4 5 7 10 12 13 15 15 15 14 14 13 13 13 12 12 12 12 11 11 10 10 9 9 8 8 7 7
5 3 2 3 4 5 5 3 3 3 3 3 3 4 3 3 4 6 8 10 12 13 16 17 16 16 15 14 14 14 14 14 13 13 12 11 11 10 10 10 9 9 8
6 4 2 2 4 3 3 4 3 3 3 3 3 4 3 4 4 6 6 8 11 12 14 17 19 18 17 16 16 15 15 15 15 14 13 12 12 12 11 11 10 10 10
6 5 4 4 4 2 2 2 2 2 2 3 4 3 3 4 4 5 6 7 9 12 13 15 16 16 19 18 17 17 16 16 16 15 15 14 14 13 13 13 12 11 11
6 5 3 2 3 2 2 3 3 3 3 3 2 2 3 5 6 5 5 4 6 9 11 13 14 14 14 20 19 18 17 17 16 16 16 15 15 14 14 13 13 12 12
5 6 4 3 3 2 3 3 3 2 3 4 3 2 2 3 3 6 5 6 6 6 7 11 13 13 12 13 16 20 19 18 17 17 17 16 16 15 15 14 14 13 13
6 5 5 3 3 3 4 4 4 5 4 4 4 3 2 2 2 2 4 5 5 5 4 6 10 13 14 12 13 18 20 20 18 17 17 16 16 16 15 15 15 14 14
5 6 5 4 4 3 4 5 5 4 4 4 3 4 4 2 2 2 3 4 4 5 5 5 6 9 12 12 12 15 19 21 19 18 17 16 16 16 16 15 15 15 14
4 5 5 4 4 3 4 4 3 5 4 4 3 3 4 4 5 4 3 3 3 3 5 5 5 6 9 11 10 12 17 20 20 19 18 17 16 16 16 15 16 15 15
4 4 5 3 4 4 4 4 4 5 5 5 4 4 4 3 4 4 4 4 3 3 4 4 4 4 7 10 11 13 16 18 19 18 17 17 16 15 15 15 15 15 15
3 3 4 3 3 4 4 5 5 6 6 6 6 5 5 5 4 4 4 4 3 3 3 3 4 4 7 8 9 12 14 17 18 18 17 16 16 15 15 14 14 14 14
2 2 3 3 4 5 5 4 5 6 6 6 8 7 5 5 5 4 4 3 3 3 3 4 2 3 4 6 8 10 10 14 16 17 17 16 15 15 14 14 13 13 12
3 3 3 4 4 4 4 4 4 5 5 5 6 6 5 5 5 5 4 4 3 4 4 3 2 2 3 4 7 8 8 11 14 15 15 15 15 14 14 13 13 12 12
2 2 3 4 4 4 5 4 4 5 5 5 4 5 5 5 4 4 4 3 3 4 4 3 2 2 2 4 6 6 7 8 12 14 14 14 13 13 12 12 12 12 11
2 3 3 4 4 4 4 4 4 4 4 4 4 4 5 4 4 4 3 2 3 3 4 3 2 1 2 2 2 5 5 5 7 11 12 12 12 12 12 11 11 11 10
3 3 3 3 4 3 3 3 4 4 3 3 4 4 4 4 4 4 3 4 3 3 4 4 2 2 2 2 2 3 4 4 4 7 10 11 11 11 10 10 10 10 10
3 3 3 2 2 3 3 3 3 2 2 3 4 4 4 3 4 4 4 4 3 4 3 3 3 2 2 2 2 2 1 1 3 5 8 10 10 10 10 10 10 10 10
3 2 1 1 2 2 2 3 3 3 2 3 3 3 3 3 3 4 4 4 3 3 3 3 3 2 2 2 2 2 2 1 2 3 4 6 8 9 10 10 10 10 10
3 1 1 1 1 1 2 3 3 3 2 3 3 2 2 2 2 2 2 2 2 2 3 3 3 2 2 2 2 2 2 2 2 2 2 3 5 5 7 9 10 10 11
1 1 1 0 1 1 3 5 4 4 3 2 2 2 2 0 1 1 2 2 2 2 3 3 3 3 3 2 2 2 2 2 2 2 2 3 4 4 5 6 8 10 11
2 2 2 1 1 2 3 4 5 4 3 2 2 2 3 1 1 1 1 2 1 2 3 3 4 3 3 2 2 3 3 3 3 2 2 3 3 3 4 6 10 11 11
3 2 2 2 2 2 2 3 6 4 2 1 2 2 2 2 2 3 2 1 1 1 2 2 2 2 2 1 2 3 3 2 2 2 3 3 3 3 3 5 9 12 12
3 3 2 2 2 2 2 3 4 3 1 0 0 2 2 2 3 4 2 2 2 1 2 2 1 1 2 3 3 1 2 2 2 2 2 3 2 2 3 3 7 12 13
3 3 2 2 2 2 2 2 4 3 2 1 1 2 4 2 2 4 2 2 2 2 1 1 1 0 1 2 3 3 2 2 2 2 2 2 2 2 2 2 4 7 9
Wind_Direction
157 147 151 158 174 172 170 184 199 197 192 200 204 207 201 160 153 149 154 167 170 174 178 180 184 187 189 192 194 194 194 194 194 194 195 194 192 190 192 192 195 197 197
143 148 147 161 179 182 179 184 189 183 200 205 203 206 197 186 173 156 159 175 181 184 188 191 193 196 199 201 203 204 205 205 203 203 203 204 205 206 207 208 211 211 211
158 157 162 176 195 186 179 190 195 182 200 207 196 202 198 200 184 172 173 178 185 193 197 198 200 202 205 208 209 208 209 210 209 208 209 212 212 212 213 214 216 220 222
171 172 179 190 184 189 186 187 208 193 204 208 194 204 197 191 188 192 193 191 187 192 200 204 204 205 208 212 214 214 213 212 211 212 213 212 212 212 215 218 222 225 225
189 191 195 185 200 198 197 209 182 198 203 211 215 204 203 196 193 209 208 204 195 192 191 200 206 208 211 213 216 217 216 214 213 214 214 213 214 214 217 221 223 225 226
199 199 206 198 210 197 203 215 177 195 222 224 245 214 218 213 198 208 209 210 202 198 196 192 198 211 214 214 217 219 218 218 216 215 215 216 217 218 220 223 224 226 227
200 199 237 168 200 208 212 215 202 206 220 231 244 252 248 236 212 207 207 211 203 206 200 186 190 198 206 216 219 218 219 218 217 216 216 217 219 220 221 222 224 226 227
204 207 204 209 197 201 221 230 221 222 231 221 214 230 252 254 247 227 203 209 216 202 201 198 196 197 201 199 209 216 218 218 219 219 219 220 221 220 220 220 222 224 226
217 224 200 212 208 209 209 215 222 220 229 241 226 214 225 237 258 257 227 217 206 201 210 208 200 200 202 198 199 210 214 216 217 219 218 218 218 218 220 221 222 223 225
223 221 214 210 217 234 212 219 221 226 230 241 244 236 238 223 225 270 258 238 220 214 215 224 217 201 202 200 201 200 206 211 214 216 217 217 217 218 221 223 224 225 227
221 224 218 205 209 231 231 235 233 230 232 237 241 244 246 240 227 229 253 253 246 233 222 212 215 204 200 197 200 199 200 204 209 213 216 217 218 220 223 225 227 227 228
214 219 222 202 206 223 231 234 237 238 241 246 251 249 241 234 234 227 239 244 239 239 229 217 213 198 201 198 203 205 198 198 204 209 213 216 219 221 224 226 229 229 228
203 197 216 195 218 229 228 228 236 243 243 245 245 250 250 246 247 238 235 250 258 255 236 232 216 196 209 198 194 197 196 196 201 206 210 214 217 220 222 224 227 228 227
220 195 204 206 225 234 241 230 241 241 240 243 249 245 247 249 251 241 227 234 259 261 247 238 223 203 201 189 188 189 195 198 203 207 211 213 216 219 220 222 224 224 224
235 210 215 219 229 235 246 247 246 251 249 245 251 248 243 248 246 244 230 213 216 244 254 246 235 211 172 189 191 186 194 203 206 208 210 212 213 216 218 218 218 215 216
257 252 244 242 243 240 235 240 253 248 245 251 253 259 257 258 258 258 246 232 218 229 248 242 243 237 204 213 189 190 203 202 206 207 207 208 209 211 211 210 209 208 209
236 246 253 258 259 255 250 244 255 260 257 260 265 264 264 261 261 272 267 250 240 235 249 261 260 230 232 227 183 198 205 198 201 207 207 207 207 206 203 202 202 202 202
224 230 240 254 265 269 271 266 272 274 268 270 268 264 268 263 249 257 265 257 247 239 235 249 260 259 248 229 211 218 207 208 195 201 202 200 200 198 196 196 195 197 198
228 241 241 245 273 293 288 282 280 276 274 275 272 265 265 264 259 259 261 264 263 262 243 233 245 243 244 224 216 234 226 185 205 202 196 194 190 189 191 192 193 196 197
224 238 257 270 278 300 325 322 311 287 279 279 287 289 286 269 264 263 259 262 266 268 254 238 240 237 227 220 202 211 236 231 231 212 184 179 182 187 192 192 195 197 198
211 211 235 287 311 351 354 334 308 295 292 290 297 297 296 324 338 313 291 296 287 277 274 260 253 259 243 208 214 222 230 240 253 213 187 187 175 180 193 198 199 200 199
177 165 185 141 36 1 13 8 346 318 307 304 309 309 271 71 21 348 317 295 269 262 272 269 263 253 252 234 224 220 228 240 247 212 196 218 190 191 184 181 187 191 195
171 164 163 148 108 51 25 6 349 316 309 321 320 309 304 340 57 345 293 287 317 283 252 259 261 255 253 240 216 235 238 248 255 221 212 230 205 205 179 179 183 187 189
179 166 175 176 144 85 36 357 333 298 295 329 348 341 348 25 2 347 314 305 328 355 291 268 262 249 247 224 223 227 238 249 249 225 204 224 212 203 175 176 188 190 192
180 176 169 170 147 113 58 8 343 299 274 251 53 29 22 53 5 349 328 329 335 354 13 29 56 241 222 209 201 196 216 235 262 239 208 202 196 190 182 188 189 194 198
182 190 170 159 142 124 96 38 349 311 310 279 165 119 75 56 10 353 320 309 292 299 304 333 38 63 150 164 190 210 217 239 266 235 204 195 195 179 197 193 181 188 199
Height
1566 1567 1567 1568 1569 1570 1571 1571 1572 1573 1574 1575 1576 1577 1578 1579 1579 1580 1580 1580 1581 1582 1582 1583 1583 1584 1585 1586 1587 1588 1589 1590 1590 1591 1592 1593 1594 1594 1595 1596 1596 1597 1597
1566 1567 1567 1568 1569 1570 1571 1572 1572 1573 1574 1575 1576 1577 1578 1579 1579 1579 1579 1580 1580 1581 1581 1582 1583 1583 1584 1585 1586 1587 1588 1588 1589 1590 1591 1592 1592 1593 1594 1594 1595 1595 1596
1565 1566 1567 1567 1568 1569 1570 1571 1572 1573 1574 1575 1575 1576 1577 1577 1578 1578 1578 1579 1579 1580 1580 1581 1582 1582 1583 1584 1584 1585 1586 1587 1588 1589 1589 1590 1591 1592 1592 1593 1593 1594 1594
1565 1565 1566 1567 1568 1569 1570 1571 1572 1572 1573 1574 1574 1575 1576 1576 1576 1577 1577 1577 1578 1578 1579 1580 1580 1581 1581 1582 1583 1584 1584 1585 1586 1587 1588 1588 1589 1590 1590 1591 1591 1592 1592
1564 1565 1565 1566 1567 1568 1569 1570 1570 1571 1572 1572 1573 1573 1574 1574 1575 1575 1576 1576 1576 1577 1577 1578 1578 1579 1580 1580 1581 1582 1582 1583 1584 1585 1585 1586 1587 1587 1588 1589 1589 1590 1590
1562 1563 1564 1565 1566 1567 1568 1568 1569 1569 1570 1571 1572 1572 1572 1573 1573 1573 1574 1574 1574 1575 1575 1575 1576 1577 1577 1578 1579 1579 1580 1581 1581 1582 1583 1584 1584 1585 1585 1586 1587 1587 1588
1561 1562 1563 1563 1564 1565 1566 1567 1567 1568 1568 1569 1570 1570 1570 1570 1570 1571 1571 1572 1573 1573 1573 1573 1574 1574 1574 1575 1576 1577 1577 1578 1579 1579 1580 1581 1581 1582 1583 1583 1584 1584 1585
1559 1560 1561 1562 1562 1563 1564 1565 1565 1566 1567 1568 1568 1568 1568 1569 1568 1568 1568 1569 1570 1570 1571 1571 1571 1571 1572 1572 1572 1573 1574 1575 1576 1576 1577 1578 1578 1579 1580 1580 1581 1581 1581
1557 1558 1559 1560 1561 1561 1562 1563 1563 1564 1565 1565 1566 1567 1567 1566 1566 1566 1566 1566 1567 1567 1567 1568 1568 1568 1569 1569 1569 1570 1571 1572 1573 1573 1574 1574 1575 1576 1576 1577 1577 1578 1578
1554 1555 1556 1557 1558 1559 1560 1560 1561 1562 1562 1563 1563 1564 1564 1564 1564 1563 1563 1563 1564 1564 1564 1565 1565 1565 1566 1566 1566 1566 1567 1568 1569 1570 1570 1571 1572 1572 1573 1573 1574 1574 1574
1552 1553 1554 1555 1555 1556 1557 1558 1558 1559 1559 1559 1560 1560 1560 1561 1561 1561 1560 1560 1561 1560 1561 1561 1562 1562 1562 1563 1563 1563 1564 1564 1565 1566 1566 1567 1568 1568 1569 1569 1570 1570 1570
1549 1550 1551 1552 1553 1553 1554 1555 1555 1555 1556 1556 1556 1556 1557 1557 1557 1558 1557 1557 1557 1557 1557 1557 1558 1558 1559 1559 1559 1559 1560 1561 1561 1562 1562 1563 1564 1564 1565 1565 1566 1566 1566
1548 1548 1549 1550 1550 1551 1551 1552 1552 1552 1552 1552 1552 1552 1553 1553 1554 1554 1554 1554 1554 1553 1553 1554 1554 1554 1555 1555 1555 1555 1556 1556 1557 1557 1558 1558 1559 1560 1560 1561 1561 1562 1562
1546 1547 1547 1547 1547 1548 1548 1548 1549 1549 1549 1548 1548 1548 1549 1549 1550 1550 1550 1550 1550 1550 1550 1550 1550 1550 1550 1550 1551 1551 1551 1552 1552 1553 1553 1553 1554 1555 1555 1556 1557 1557 1558
1544 1545 1545 1545 1545 1545 1545 1545 1545 1545 1545 1545 1544 1544 1544 1544 1545 1546 1546 1546 1547 1546 1545 1546 1547 1546 1546 1546 1547 1547 1547 1547 1547 1548 1548 1549 1549 1550 1550 1551 1552 1552 1553
1543 1542 1542 1543 1542 1542 1542 1542 1541 1541 1541 1541 1541 1540 1540 1540 1541 1541 1542 1542 1542 1542 1542 1542 1542 1542 1543 1543 1543 1543 1543 1542 1543 1543 1543 1543 1544 1545 1545 1546 1546 1547 1548
1540 1540 1540 1540 1540 1539 1539 1539 1539 1538 1538 1537 1537 1537 1536 1537 1536 1537 1538 1538 1538 1538 1538 1538 1538 1538 1539 1539 1539 1539 1538 1538 1538 1538 1538 1539 1539 1540 1540 1541 1541 1542 1543
1538 1538 1538 1537 1537 1537 1536 1536 1536 1535 1535 1534 1534 1533 1533 1533 1533 1533 1533 1534 1534 1534 1534 1534 1534 1534 1534 1534 1534 1534 1534 1534 1533 1533 1533 1534 1535 1535 1536 1536 1537 1537 1538
1536 1536 1536 1535 1535 1535 1534 1533 1533 1532 1531 1531 1531 1530 1530 1529 1529 1530 1530 1530 1530 1530 1530 1530 1529 1530 1530 1530 1530 1530 1530 1529 1529 1529 1529 1530 1530 1530 1531 1531 1532 1532 1533
1535 1534 1534 1533 1533 1532 1531 1531 1530 1530 1529 1528 1528 1527 1527 1526 1526 1526 1526 1526 1526 1526 1526 1526 1525 1526 1526 1526 1526 1525 1525 1525 1525 1525 1525 1525 1525 1526 1526 1527 1527 1528 1528
1532 1532 1532 1531 1531 1530 1529 1529 1528 1527 1527 1526 1525 1524 1524 1523 1523 1523 1523 1522 1522 1522 1522 1522 1522 1522 1521 1521 1521 1521 1521 1521 1521 1521 1521 1521 1521 1521 1521 1522 1522 1523 1523
1530 1530 1530 1529 1529 1528 1528 1527 1526 1525 1525 1524 1523 1522 1521 1521 1520 1520 1519 1519 1519 1519 1518 1518 1518 1518 1517 1517 1517 1517 1517 1517 1517 1518 1517 1517 1517 1517 1518 1518 1518 1519 1519
1527 1527 1527 1527 1526 1526 1526 1525 1524 1523 1522 1521 1520 1520 1519 1518 1517 1517 1516 1516 1516 1515 1515 1515 1514 1514 1513 1513 1513 1512 1512 1513 1513 1513 1513 1513 1514 1513 1514 1514 1515 1515 1515
1525 1524 1525 1524 1524 1523 1523 1522 1521 1520 1519 1519 1518 1517 1516 1515 1514 1514 1513 1513 1512 1512 1512 1511 1511 1510 1510 1510 1510 1510 1510 1510 1510 1510 1510 1510 1510 1510 1510 1510 1511 1511 1511
1522 1522 1522 1522 1521 1521 1520 1520 1519 1518 1517 1516 1515 1515 1514 1513 1512 1512 1511 1510 1509 1509 1508 1508 1507 1507 1507 1507 1506 1506 1506 1507 1506 1506 1507 1506 1506 1506 1507 1507 1507 1507 1508
1520 1520 1519 1519 1519 1518 1518 1517 1516 1515 1514 1514 1513 1512 1511 1511 1510 1509 1509 1508 1507 1506 1506 1505 1504 1504 1504 1504 1504 1504 1503 1503 1503 1503 1503 1503 1503 1503 1503 1503 1503 1504 1504